Location: Alessandria
(44.9000°N, 8.6170°E)
Time: 18:23:24
(UTC+02:00)

ISS - Pass Details

Date: 20 May 2021
Orbit: 417 x 422 km, 51.6° (Epoch: 18 June)

Event Time Altitude Azimuth Distance (km) Brightness Sun altitude
Rises 01:18:42 0° 300° (WNW) 2,371 0.5 -25.1°
Reaches altitude 10° 01:20:53 10° 307° (NW) 1,506 -0.5 -25.1°
Enters shadow 01:22:54 29° 331° (NNW) 804 -1.9 -25.1°
